contact:dominique.lefevre@mio.osupytheas.fr, maurice.libes@osupytheas.fr, didier.mallarino@osupytheas.fr
Project:EMSO http://www.emso-fr.org/EMSO-France
Depth: 2436.0 m
Title:EMSO Ligure Ouest : Data MII capteur MICROCAT
DateTime_Computer,Latitude,Longitude,Temperature,Conductivity,Pressure,DateTime_Instrument
DateTime_Computer,Latitude,Longitude,degC,S m-1,dbar,DateTime_Instrument
2023-01-14T00:02:30Z,42.805,6.029,13.3012,4.60064,2470.624,2023-1-14T02:08:46Z
2023-01-14T00:05:33Z,42.805,6.029,13.3013,4.60065,2470.646,2023-1-14T02:11:50Z
2023-01-14T00:08:36Z,42.805,6.029,13.3015,4.60066,2470.646,2023-1-14T02:14:53Z
2023-01-14T00:11:40Z,42.805,6.029,13.3014,4.60064,2470.633,2023-1-14T02:17:56Z
2023-01-14T00:14:43Z,42.805,6.029,13.3012,4.60067,2470.67,2023-1-14T02:20:59Z
2023-01-14T00:17:46Z,42.805,6.029,13.3016,4.60067,2470.684,2023-1-14T02:24:02Z
2023-01-14T00:20:49Z,42.805,6.029,13.3014,4.60065,2470.633,2023-1-14T02:27:05Z
2023-01-14T00:23:52Z,42.805,6.029,13.3016,4.60064,2470.661,2023-1-14T02:30:08Z
2023-01-14T00:26:55Z,42.805,6.029,13.3015,4.60065,2470.646,2023-1-14T02:33:11Z
2023-01-14T00:29:58Z,42.805,6.029,13.3014,4.60069,2470.693,2023-1-14T02:36:14Z
2023-01-14T00:33:01Z,42.805,6.029,13.3015,4.60067,2470.646,2023-1-14T02:39:17Z
2023-01-14T00:36:04Z,42.805,6.029,13.3016,4.60066,2470.646,2023-1-14T02:42:20Z
2023-01-14T00:39:07Z,42.805,6.029,13.3015,4.60067,2470.637,2023-1-14T02:45:24Z
2023-01-14T00:42:10Z,42.805,6.029,13.3021,4.60065,2470.624,2023-1-14T02:48:27Z
2023-01-14T00:45:14Z,42.805,6.029,13.3013,4.60065,2470.646,2023-1-14T02:51:30Z
2023-01-14T00:48:17Z,42.805,6.029,13.3014,4.60067,2470.646,2023-1-14T02:54:33Z
2023-01-14T00:51:20Z,42.805,6.029,13.3017,4.60065,2470.693,2023-1-14T02:57:36Z
2023-01-14T00:54:23Z,42.805,6.029,13.3015,4.60064,2470.646,2023-1-14T03:00:39Z
2023-01-14T00:57:26Z,42.805,6.029,13.3015,4.60064,2470.684,2023-1-14T03:03:42Z
2023-01-14T01:00:29Z,42.805,6.029,13.3014,4.60064,2470.646,2023-1-14T03:06:45Z
2023-01-14T01:03:32Z,42.805,6.029,13.3015,4.60064,2470.661,2023-1-14T03:09:48Z
2023-01-14T01:06:35Z,42.805,6.029,13.3015,4.60065,2470.646,2023-1-14T03:12:51Z
2023-01-14T01:09:38Z,42.805,6.029,13.3016,4.60064,2470.637,2023-1-14T03:15:54Z
2023-01-14T01:12:41Z,42.805,6.029,13.3015,4.60064,2470.646,2023-1-14T03:18:57Z
2023-01-14T01:15:44Z,42.805,6.029,13.3014,4.60065,2470.646,2023-1-14T03:22:01Z
2023-01-14T01:18:47Z,42.805,6.029,13.3014,4.60066,2470.624,2023-1-14T03:25:04Z
2023-01-14T01:21:50Z,42.805,6.029,13.3014,4.60068,2470.646,2023-1-14T03:28:07Z
2023-01-14T01:24:54Z,42.805,6.029,13.3019,4.60065,2470.661,2023-1-14T03:31:10Z
2023-01-14T01:27:57Z,42.805,6.029,13.3019,4.60066,2470.614,2023-1-14T03:34:13Z
2023-01-14T01:31:00Z,42.805,6.029,13.3016,4.60066,2470.661,2023-1-14T03:37:16Z
2023-01-14T01:34:03Z,42.805,6.029,13.3014,4.60067,2470.624,2023-1-14T03:40:19Z
2023-01-14T01:37:06Z,42.805,6.029,13.3018,4.60065,2470.646,2023-1-14T03:43:22Z
2023-01-14T01:40:09Z,42.805,6.029,13.3016,4.60067,2470.624,2023-1-14T03:46:25Z
2023-01-14T01:43:12Z,42.805,6.029,13.3014,4.60068,2470.661,2023-1-14T03:49:28Z
2023-01-14T01:46:15Z,42.805,6.029,13.3015,4.60067,2470.61,2023-1-14T03:52:31Z
2023-01-14T01:49:18Z,42.805,6.029,13.3020,4.60066,2470.624,2023-1-14T03:55:35Z
2023-01-14T01:52:21Z,42.805,6.029,13.3018,4.60067,2470.624,2023-1-14T03:58:38Z
2023-01-14T01:55:24Z,42.805,6.029,13.3016,4.60067,2470.624,2023-1-14T04:01:41Z
2023-01-14T01:58:28Z,42.805,6.029,13.3016,4.60067,2470.646,2023-1-14T04:04:44Z
2023-01-14T02:01:31Z,42.805,6.029,13.3014,4.60067,2470.637,2023-1-14T04:07:47Z
2023-01-14T02:04:34Z,42.805,6.029,13.3017,4.60066,2470.646,2023-1-14T04:10:50Z
2023-01-14T02:07:37Z,42.805,6.029,13.3015,4.60067,2470.637,2023-1-14T04:13:53Z
2023-01-14T02:10:40Z,42.805,6.029,13.3012,4.60067,2470.624,2023-1-14T04:16:56Z
2023-01-14T02:13:43Z,42.805,6.029,13.3020,4.60067,2470.646,2023-1-14T04:19:59Z
2023-01-14T02:16:46Z,42.805,6.029,13.3017,4.60067,2470.624,2023-1-14T04:23:02Z
2023-01-14T02:19:49Z,42.805,6.029,13.3015,4.60067,2470.624,2023-1-14T04:26:05Z
2023-01-14T02:22:52Z,42.805,6.029,13.3012,4.60067,2470.646,2023-1-14T04:29:08Z
2023-01-14T02:25:55Z,42.805,6.029,13.3018,4.60067,2470.624,2023-1-14T04:32:12Z
2023-01-14T02:28:58Z,42.805,6.029,13.3015,4.60067,2470.624,2023-1-14T04:35:15Z
2023-01-14T02:32:01Z,42.805,6.029,13.3015,4.60067,2470.577,2023-1-14T04:38:18Z
2023-01-14T02:35:05Z,42.805,6.029,13.3012,4.60066,2470.637,2023-1-14T04:41:21Z
2023-01-14T02:38:08Z,42.805,6.029,13.3016,4.60066,2470.624,2023-1-14T04:44:24Z
2023-01-14T02:41:11Z,42.805,6.029,13.3016,4.60067,2470.6,2023-1-14T04:47:27Z
2023-01-14T02:44:14Z,42.805,6.029,13.3017,4.60066,2470.637,2023-1-14T04:50:30Z
2023-01-14T02:47:17Z,42.805,6.029,13.3015,4.60066,2470.637,2023-1-14T04:53:33Z
2023-01-14T02:50:20Z,42.805,6.029,13.3019,4.60067,2470.624,2023-1-14T04:56:36Z
2023-01-14T02:53:23Z,42.805,6.029,13.3015,4.60066,2470.577,2023-1-14T04:59:39Z
2023-01-14T02:56:26Z,42.805,6.029,13.3014,4.60067,2470.6,2023-1-14T05:02:42Z
2023-01-14T02:59:29Z,42.805,6.029,13.3020,4.60069,2470.577,2023-1-14T05:05:46Z
2023-01-14T03:02:32Z,42.805,6.029,13.3013,4.60067,2470.614,2023-1-14T05:08:49Z
2023-01-14T03:05:35Z,42.805,6.029,13.3014,4.60067,2470.614,2023-1-14T05:11:52Z
2023-01-14T03:08:39Z,42.805,6.029,13.3018,4.60066,2470.637,2023-1-14T05:14:55Z
2023-01-14T03:11:42Z,42.805,6.029,13.3019,4.60067,2470.6,2023-1-14T05:17:58Z
2023-01-14T03:14:45Z,42.805,6.029,13.3019,4.60067,2470.6,2023-1-14T05:21:01Z
2023-01-14T03:17:48Z,42.805,6.029,13.3019,4.60067,2470.624,2023-1-14T05:24:04Z
2023-01-14T03:20:51Z,42.805,6.029,13.3014,4.60069,2470.637,2023-1-14T05:27:07Z
2023-01-14T03:23:54Z,42.805,6.029,13.3018,4.60067,2470.6,2023-1-14T05:30:10Z
2023-01-14T03:26:57Z,42.805,6.029,13.3016,4.60067,2470.637,2023-1-14T05:33:13Z
2023-01-14T03:30:00Z,42.805,6.029,13.3017,4.60067,2470.624,2023-1-14T05:36:16Z
2023-01-14T03:33:03Z,42.805,6.029,13.3016,4.60067,2470.577,2023-1-14T05:39:20Z
2023-01-14T03:36:06Z,42.805,6.029,13.3015,4.60067,2470.577,2023-1-14T05:42:23Z
2023-01-14T03:39:09Z,42.805,6.029,13.3015,4.60068,2470.624,2023-1-14T05:45:26Z
2023-01-14T03:42:13Z,42.805,6.029,13.3015,4.60066,2470.6,2023-1-14T05:48:29Z
2023-01-14T03:45:16Z,42.805,6.029,13.3016,4.60066,2470.6,2023-1-14T05:51:32Z
2023-01-14T03:48:19Z,42.805,6.029,13.3019,4.60067,2470.553,2023-1-14T05:54:35Z
2023-01-14T03:51:22Z,42.805,6.029,13.3016,4.60068,2470.614,2023-1-14T05:57:38Z
2023-01-14T03:54:25Z,42.805,6.029,13.3017,4.60067,2470.553,2023-1-14T06:00:41Z
2023-01-14T03:57:28Z,42.805,6.029,13.3015,4.60067,2470.591,2023-1-14T06:03:44Z
2023-01-14T04:00:31Z,42.805,6.029,13.3015,4.60067,2470.553,2023-1-14T06:06:47Z
2023-01-14T04:03:34Z,42.805,6.029,13.3019,4.60067,2470.577,2023-1-14T06:09:50Z
2023-01-14T04:06:37Z,42.805,6.029,13.3016,4.60069,2470.577,2023-1-14T06:12:53Z
2023-01-14T04:09:40Z,42.805,6.029,13.3016,4.60067,2470.553,2023-1-14T06:15:57Z
2023-01-14T04:12:43Z,42.805,6.029,13.3024,4.60067,2470.6,2023-1-14T06:19:00Z
2023-01-14T04:15:46Z,42.805,6.029,13.3016,4.60067,2470.577,2023-1-14T06:22:03Z
2023-01-14T04:18:50Z,42.805,6.029,13.3015,4.60067,2470.553,2023-1-14T06:25:06Z
2023-01-14T04:21:53Z,42.805,6.029,13.3019,4.60067,2470.6,2023-1-14T06:28:09Z
2023-01-14T04:24:56Z,42.805,6.029,13.3017,4.60071,2470.6,2023-1-14T06:31:12Z
2023-01-14T04:27:59Z,42.805,6.029,13.3015,4.60068,2470.614,2023-1-14T06:34:15Z
2023-01-14T04:31:02Z,42.805,6.029,13.3015,4.60067,2470.553,2023-1-14T06:37:18Z
2023-01-14T04:34:05Z,42.805,6.029,13.3018,4.60067,2470.567,2023-1-14T06:40:21Z
2023-01-14T04:37:08Z,42.805,6.029,13.3017,4.60069,2470.567,2023-1-14T06:43:24Z
2023-01-14T04:40:11Z,42.805,6.029,13.3016,4.60067,2470.567,2023-1-14T06:46:27Z
2023-01-14T04:43:14Z,42.805,6.029,13.3018,4.60067,2470.591,2023-1-14T06:49:31Z
2023-01-14T04:46:17Z,42.805,6.029,13.3019,4.60067,2470.567,2023-1-14T06:52:34Z
2023-01-14T04:49:20Z,42.805,6.029,13.3019,4.60067,2470.577,2023-1-14T06:55:37Z
2023-01-14T04:52:23Z,42.805,6.029,13.3015,4.60067,2470.614,2023-1-14T06:58:40Z
2023-01-14T04:55:27Z,42.805,6.029,13.3017,4.60067,2470.577,2023-1-14T07:01:43Z
2023-01-14T04:58:30Z,42.805,6.029,13.3015,4.60067,2470.591,2023-1-14T07:04:46Z
2023-01-14T05:01:33Z,42.805,6.029,13.3019,4.60067,2470.553,2023-1-14T07:07:49Z
2023-01-14T05:04:36Z,42.805,6.029,13.3017,4.60068,2470.577,2023-1-14T07:10:52Z
2023-01-14T05:07:39Z,42.805,6.029,13.3015,4.60072,2470.567,2023-1-14T07:13:55Z
2023-01-14T05:10:42Z,42.805,6.029,13.3017,4.60068,2470.577,2023-1-14T07:16:58Z
2023-01-14T05:13:45Z,42.805,6.029,13.3015,4.60067,2470.553,2023-1-14T07:20:01Z
2023-01-14T05:16:48Z,42.805,6.029,13.3020,4.60067,2470.591,2023-1-14T07:23:05Z
2023-01-14T05:19:51Z,42.805,6.029,13.3015,4.60067,2470.553,2023-1-14T07:26:08Z
2023-01-14T05:22:54Z,42.805,6.029,13.3017,4.60067,2470.591,2023-1-14T07:29:11Z
2023-01-14T05:25:57Z,42.805,6.029,13.3022,4.60067,2470.577,2023-1-14T07:32:14Z
2023-01-14T05:29:01Z,42.805,6.029,13.3021,4.60069,2470.6,2023-1-14T07:35:17Z
2023-01-14T05:32:04Z,42.805,6.029,13.3017,4.60067,2470.577,2023-1-14T07:38:20Z
2023-01-14T05:35:07Z,42.805,6.029,13.3019,4.60068,2470.567,2023-1-14T07:41:23Z
2023-01-14T05:38:10Z,42.805,6.029,13.3020,4.60069,2470.577,2023-1-14T07:44:26Z
2023-01-14T05:41:13Z,42.805,6.029,13.3017,4.60067,2470.567,2023-1-14T07:47:29Z
2023-01-14T05:44:16Z,42.805,6.029,13.3019,4.60067,2470.577,2023-1-14T07:50:32Z
2023-01-14T05:47:19Z,42.805,6.029,13.3017,4.60068,2470.553,2023-1-14T07:53:35Z
2023-01-14T05:50:22Z,42.805,6.029,13.3018,4.60067,2470.53,2023-1-14T07:56:39Z
2023-01-14T05:53:25Z,42.805,6.029,13.3019,4.60067,2470.577,2023-1-14T07:59:42Z
2023-01-14T05:56:28Z,42.805,6.029,13.3018,4.60068,2470.553,2023-1-14T08:02:45Z
2023-01-14T05:59:31Z,42.805,6.029,13.3022,4.60068,2470.577,2023-1-14T08:05:48Z
2023-01-14T06:02:34Z,42.805,6.029,13.3019,4.60069,2470.6,2023-1-14T08:08:51Z
2023-01-14T06:05:38Z,42.805,6.029,13.3021,4.60068,2470.53,2023-1-14T08:11:54Z
2023-01-14T06:08:41Z,42.805,6.029,13.3019,4.60067,2470.591,2023-1-14T08:14:57Z
2023-01-14T06:11:44Z,42.805,6.029,13.3019,4.60067,2470.553,2023-1-14T08:18:00Z
2023-01-14T06:14:47Z,42.805,6.029,13.3019,4.60067,2470.6,2023-1-14T08:21:03Z
2023-01-14T06:17:50Z,42.805,6.029,13.3021,4.60068,2470.577,2023-1-14T08:24:06Z
2023-01-14T06:20:53Z,42.805,6.029,13.3018,4.60068,2470.6,2023-1-14T08:27:09Z
2023-01-14T06:23:56Z,42.805,6.029,13.3015,4.60068,2470.577,2023-1-14T08:30:12Z
2023-01-14T06:26:59Z,42.805,6.029,13.3015,4.60068,2470.553,2023-1-14T08:33:16Z
2023-01-14T06:30:02Z,42.805,6.029,13.3016,4.60069,2470.614,2023-1-14T08:36:19Z
2023-01-14T06:33:05Z,42.805,6.029,13.3015,4.60071,2470.577,2023-1-14T08:39:22Z
2023-01-14T06:36:08Z,42.805,6.029,13.3018,4.60069,2470.553,2023-1-14T08:42:25Z
2023-01-14T06:39:11Z,42.805,6.029,13.3019,4.60068,2470.577,2023-1-14T08:45:28Z
2023-01-14T06:42:15Z,42.805,6.029,13.3015,4.60067,2470.577,2023-1-14T08:48:31Z
2023-01-14T06:45:18Z,42.805,6.029,13.3019,4.60067,2470.6,2023-1-14T08:51:34Z
2023-01-14T06:48:21Z,42.805,6.029,13.3015,4.60069,2470.624,2023-1-14T08:54:37Z
2023-01-14T06:51:24Z,42.805,6.029,13.3019,4.60069,2470.577,2023-1-14T08:57:40Z
2023-01-14T06:54:27Z,42.805,6.029,13.3015,4.60068,2470.591,2023-1-14T09:00:43Z
2023-01-14T06:57:30Z,42.805,6.029,13.3015,4.60067,2470.6,2023-1-14T09:03:46Z
2023-01-14T07:00:33Z,42.805,6.029,13.3019,4.60069,2470.6,2023-1-14T09:06:49Z
2023-01-14T07:03:36Z,42.805,6.029,13.3019,4.60068,2470.591,2023-1-14T09:09:53Z
2023-01-14T07:06:39Z,42.805,6.029,13.3018,4.60067,2470.614,2023-1-14T09:12:56Z
2023-01-14T07:09:42Z,42.805,6.029,13.3017,4.60072,2470.6,2023-1-14T09:15:59Z
2023-01-14T07:12:45Z,42.805,6.029,13.3021,4.60068,2470.614,2023-1-14T09:19:02Z
2023-01-14T07:15:49Z,42.805,6.029,13.3016,4.60068,2470.577,2023-1-14T09:22:05Z
2023-01-14T07:18:52Z,42.805,6.029,13.3021,4.60068,2470.577,2023-1-14T09:25:08Z
2023-01-14T07:21:55Z,42.805,6.029,13.3021,4.60068,2470.6,2023-1-14T09:28:11Z
2023-01-14T07:24:58Z,42.805,6.029,13.3016,4.60067,2470.6,2023-1-14T09:31:14Z
2023-01-14T07:28:01Z,42.805,6.029,13.3018,4.60068,2470.577,2023-1-14T09:34:17Z
2023-01-14T07:31:04Z,42.805,6.029,13.3019,4.60070,2470.6,2023-1-14T09:37:20Z
2023-01-14T07:34:07Z,42.805,6.029,13.3014,4.60067,2470.624,2023-1-14T09:40:23Z
2023-01-14T07:37:10Z,42.805,6.029,13.3017,4.60069,2470.624,2023-1-14T09:43:27Z
2023-01-14T07:40:13Z,42.805,6.029,13.3019,4.60068,2470.577,2023-1-14T09:46:30Z
2023-01-14T07:43:16Z,42.805,6.029,13.3015,4.60068,2470.637,2023-1-14T09:49:33Z
2023-01-14T07:46:19Z,42.805,6.029,13.3017,4.60068,2470.614,2023-1-14T09:52:36Z
2023-01-14T07:49:22Z,42.805,6.029,13.3019,4.60069,2470.6,2023-1-14T09:55:39Z
2023-01-14T07:52:26Z,42.805,6.029,13.3017,4.60069,2470.614,2023-1-14T09:58:42Z
2023-01-14T07:55:29Z,42.805,6.029,13.3019,4.60069,2470.6,2023-1-14T10:01:45Z
2023-01-14T07:58:32Z,42.805,6.029,13.3017,4.60069,2470.637,2023-1-14T10:04:48Z
2023-01-14T08:01:35Z,42.805,6.029,13.3020,4.60068,2470.6,2023-1-14T10:07:51Z
2023-01-14T08:04:38Z,42.805,6.029,13.3019,4.60067,2470.624,2023-1-14T10:10:54Z
2023-01-14T08:07:41Z,42.805,6.029,13.3021,4.60069,2470.577,2023-1-14T10:13:57Z
2023-01-14T08:10:44Z,42.805,6.029,13.3019,4.60069,2470.614,2023-1-14T10:17:01Z
2023-01-14T08:13:47Z,42.805,6.029,13.3024,4.60068,2470.637,2023-1-14T10:20:04Z
2023-01-14T08:16:50Z,42.805,6.029,13.3019,4.60068,2470.624,2023-1-14T10:23:07Z
2023-01-14T08:19:53Z,42.805,6.029,13.3021,4.60070,2470.637,2023-1-14T10:26:10Z
2023-01-14T08:22:56Z,42.805,6.029,13.3022,4.60068,2470.614,2023-1-14T10:29:13Z
2023-01-14T08:26:00Z,42.805,6.029,13.3017,4.60070,2470.624,2023-1-14T10:32:16Z
2023-01-14T08:29:03Z,42.805,6.029,13.3021,4.60068,2470.624,2023-1-14T10:35:19Z
2023-01-14T08:32:06Z,42.805,6.029,13.3020,4.60068,2470.67,2023-1-14T10:38:22Z
2023-01-14T08:35:09Z,42.805,6.029,13.3021,4.60069,2470.661,2023-1-14T10:41:25Z
2023-01-14T08:38:12Z,42.805,6.029,13.3018,4.60068,2470.646,2023-1-14T10:44:28Z
2023-01-14T08:41:15Z,42.805,6.029,13.3020,4.60068,2470.661,2023-1-14T10:47:31Z
2023-01-14T08:44:18Z,42.805,6.029,13.3016,4.60068,2470.6,2023-1-14T10:50:35Z
2023-01-14T08:47:21Z,42.805,6.029,13.3015,4.60068,2470.684,2023-1-14T10:53:38Z
2023-01-14T08:50:24Z,42.805,6.029,13.3019,4.60067,2470.646,2023-1-14T10:56:41Z
2023-01-14T08:53:27Z,42.805,6.029,13.3019,4.60068,2470.693,2023-1-14T10:59:44Z
2023-01-14T08:56:30Z,42.805,6.029,13.3016,4.60068,2470.67,2023-1-14T11:02:47Z
2023-01-14T08:59:34Z,42.805,6.029,13.3016,4.60067,2470.646,2023-1-14T11:05:50Z
2023-01-14T09:02:37Z,42.805,6.029,13.3014,4.60068,2470.684,2023-1-14T11:08:53Z
2023-01-14T09:05:40Z,42.805,6.029,13.3016,4.60067,2470.67,2023-1-14T11:11:56Z
2023-01-14T09:08:43Z,42.805,6.029,13.3016,4.60069,2470.684,2023-1-14T11:14:59Z
2023-01-14T09:11:46Z,42.805,6.029,13.3014,4.60067,2470.661,2023-1-14T11:18:02Z
2023-01-14T09:14:49Z,42.805,6.029,13.3017,4.60068,2470.67,2023-1-14T11:21:06Z
2023-01-14T09:17:52Z,42.805,6.029,13.3016,4.60068,2470.684,2023-1-14T11:24:09Z
2023-01-14T09:20:55Z,42.805,6.029,13.3016,4.60068,2470.67,2023-1-14T11:27:12Z
2023-01-14T09:23:58Z,42.805,6.029,13.3015,4.60067,2470.693,2023-1-14T11:30:15Z
2023-01-14T09:27:01Z,42.805,6.029,13.3019,4.60067,2470.684,2023-1-14T11:33:18Z
2023-01-14T09:30:05Z,42.805,6.029,13.3014,4.60067,2470.684,2023-1-14T11:36:21Z
2023-01-14T09:33:08Z,42.805,6.029,13.3020,4.60067,2470.67,2023-1-14T11:39:24Z
2023-01-14T09:36:11Z,42.805,6.029,13.3018,4.60069,2470.693,2023-1-14T11:42:27Z
2023-01-14T09:39:14Z,42.805,6.029,13.3014,4.60068,2470.693,2023-1-14T11:45:30Z
2023-01-14T09:42:17Z,42.805,6.029,13.3016,4.60067,2470.717,2023-1-14T11:48:33Z
2023-01-14T09:45:20Z,42.805,6.029,13.3015,4.60067,2470.693,2023-1-14T11:51:36Z
2023-01-14T09:48:23Z,42.805,6.029,13.3019,4.60065,2470.717,2023-1-14T11:54:40Z
2023-01-14T09:51:26Z,42.805,6.029,13.3015,4.60067,2470.67,2023-1-14T11:57:43Z
2023-01-14T09:54:29Z,42.805,6.029,13.3015,4.60066,2470.684,2023-1-14T12:00:46Z
2023-01-14T09:57:32Z,42.805,6.029,13.3013,4.60069,2470.693,2023-1-14T12:03:49Z
2023-01-14T10:00:35Z,42.805,6.029,13.3014,4.60066,2470.67,2023-1-14T12:06:52Z
2023-01-14T10:03:39Z,42.805,6.029,13.3014,4.60066,2470.717,2023-1-14T12:09:55Z
2023-01-14T10:06:42Z,42.805,6.029,13.3016,4.60067,2470.707,2023-1-14T12:12:58Z
2023-01-14T10:09:45Z,42.805,6.029,13.3015,4.60069,2470.693,2023-1-14T12:16:01Z
2023-01-14T10:12:48Z,42.805,6.029,13.3017,4.60068,2470.693,2023-1-14T12:19:04Z
2023-01-14T10:15:51Z,42.805,6.029,13.3015,4.60065,2470.74,2023-1-14T12:22:07Z
2023-01-14T10:18:54Z,42.805,6.029,13.3014,4.60068,2470.717,2023-1-14T12:25:10Z
2023-01-14T10:21:57Z,42.805,6.029,13.3014,4.60066,2470.717,2023-1-14T12:28:14Z
2023-01-14T10:25:00Z,42.805,6.029,13.3015,4.60065,2470.73,2023-1-14T12:31:17Z
2023-01-14T10:28:03Z,42.805,6.029,13.3018,4.60067,2470.73,2023-1-14T12:34:20Z
2023-01-14T10:31:06Z,42.805,6.029,13.3015,4.60064,2470.717,2023-1-14T12:37:23Z
2023-01-14T10:34:09Z,42.805,6.029,13.3014,4.60065,2470.717,2023-1-14T12:40:26Z
2023-01-14T10:37:12Z,42.805,6.029,13.3018,4.60067,2470.693,2023-1-14T12:43:29Z
2023-01-14T10:40:16Z,42.805,6.029,13.3015,4.60067,2470.703,2023-1-14T12:46:32Z
2023-01-14T10:43:19Z,42.805,6.029,13.3011,4.60066,2470.717,2023-1-14T12:49:35Z
2023-01-14T10:46:22Z,42.805,6.029,13.3014,4.60064,2470.763,2023-1-14T12:52:38Z
2023-01-14T10:49:25Z,42.805,6.029,13.3011,4.60067,2470.74,2023-1-14T12:55:41Z
2023-01-14T10:52:28Z,42.805,6.029,13.3015,4.60064,2470.717,2023-1-14T12:58:45Z
2023-01-14T10:55:31Z,42.805,6.029,13.3014,4.60067,2470.744,2023-1-14T13:01:48Z
2023-01-14T10:58:34Z,42.805,6.029,13.3015,4.60064,2470.717,2023-1-14T13:04:51Z
2023-01-14T11:01:37Z,42.805,6.029,13.3014,4.60064,2470.73,2023-1-14T13:07:54Z
2023-01-14T11:04:40Z,42.805,6.029,13.3013,4.60068,2470.73,2023-1-14T13:10:57Z
2023-01-14T11:07:43Z,42.805,6.029,13.3012,4.60066,2470.717,2023-1-14T13:14:00Z
2023-01-14T11:10:47Z,42.805,6.029,13.3015,4.60067,2470.717,2023-1-14T13:17:03Z
2023-01-14T11:13:50Z,42.805,6.029,13.3014,4.60066,2470.717,2023-1-14T13:20:06Z
2023-01-14T11:16:53Z,42.805,6.029,13.3015,4.60066,2470.74,2023-1-14T13:23:09Z
2023-01-14T11:19:56Z,42.805,6.029,13.3015,4.60067,2470.717,2023-1-14T13:26:12Z
2023-01-14T11:22:59Z,42.805,6.029,13.3015,4.60065,2470.717,2023-1-14T13:29:15Z
2023-01-14T11:26:02Z,42.805,6.029,13.3015,4.60066,2470.693,2023-1-14T13:32:18Z
2023-01-14T11:29:05Z,42.805,6.029,13.3015,4.60064,2470.74,2023-1-14T13:35:22Z
2023-01-14T11:32:08Z,42.805,6.029,13.3013,4.60065,2470.754,2023-1-14T13:38:25Z
2023-01-14T11:35:11Z,42.805,6.029,13.3014,4.60067,2470.74,2023-1-14T13:41:28Z
2023-01-14T11:38:14Z,42.805,6.029,13.3014,4.60064,2470.693,2023-1-14T13:44:31Z
2023-01-14T11:41:17Z,42.805,6.029,13.3014,4.60065,2470.73,2023-1-14T13:47:34Z
2023-01-14T11:44:21Z,42.805,6.029,13.3014,4.60067,2470.693,2023-1-14T13:50:37Z
2023-01-14T11:47:24Z,42.805,6.029,13.3020,4.60064,2470.73,2023-1-14T13:53:40Z
2023-01-14T11:50:27Z,42.805,6.029,13.3018,4.60067,2470.74,2023-1-14T13:56:43Z
2023-01-14T11:53:30Z,42.805,6.029,13.3015,4.60065,2470.707,2023-1-14T13:59:46Z
2023-01-14T11:56:33Z,42.805,6.029,13.3011,4.60066,2470.717,2023-1-14T14:02:49Z
2023-01-14T11:59:36Z,42.805,6.029,13.3014,4.60064,2470.74,2023-1-14T14:05:53Z
2023-01-14T12:02:39Z,42.805,6.029,13.3010,4.60066,2470.693,2023-1-14T14:08:56Z
2023-01-14T12:05:42Z,42.805,6.029,13.3015,4.60066,2470.717,2023-1-14T14:11:59Z
2023-01-14T12:08:45Z,42.805,6.029,13.3011,4.60067,2470.754,2023-1-14T14:15:02Z
2023-01-14T12:11:48Z,42.805,6.029,13.3014,4.60066,2470.74,2023-1-14T14:18:05Z
2023-01-14T12:14:51Z,42.805,6.029,13.3015,4.60066,2470.74,2023-1-14T14:21:08Z
2023-01-14T12:17:54Z,42.805,6.029,13.3015,4.60065,2470.693,2023-1-14T14:24:11Z
2023-01-14T12:20:58Z,42.805,6.029,13.3014,4.60065,2470.74,2023-1-14T14:27:14Z
2023-01-14T12:24:01Z,42.805,6.029,13.3014,4.60069,2470.67,2023-1-14T14:30:17Z
2023-01-14T12:27:04Z,42.805,6.029,13.3018,4.60065,2470.717,2023-1-14T14:33:20Z
2023-01-14T12:30:07Z,42.805,6.029,13.3016,4.60066,2470.693,2023-1-14T14:36:23Z
2023-01-14T12:33:10Z,42.805,6.029,13.3014,4.60067,2470.693,2023-1-14T14:39:27Z
2023-01-14T12:36:13Z,42.805,6.029,13.3019,4.60069,2470.74,2023-1-14T14:42:30Z
2023-01-14T12:39:16Z,42.805,6.029,13.3017,4.60066,2470.74,2023-1-14T14:45:33Z
2023-01-14T12:42:19Z,42.805,6.029,13.3019,4.60068,2470.717,2023-1-14T14:48:36Z
2023-01-14T12:45:22Z,42.805,6.029,13.3017,4.60066,2470.73,2023-1-14T14:51:39Z
2023-01-14T12:48:25Z,42.805,6.029,13.3014,4.60066,2470.703,2023-1-14T14:54:42Z
2023-01-14T12:51:29Z,42.805,6.029,13.3017,4.60069,2470.693,2023-1-14T14:57:45Z
2023-01-14T12:54:32Z,42.805,6.029,13.3013,4.60066,2470.717,2023-1-14T15:00:48Z
2023-01-14T12:57:35Z,42.805,6.029,13.3016,4.60066,2470.707,2023-1-14T15:03:51Z
2023-01-14T13:00:38Z,42.805,6.029,13.3016,4.60067,2470.717,2023-1-14T15:06:54Z
2023-01-14T13:03:41Z,42.805,6.029,13.3014,4.60067,2470.717,2023-1-14T15:09:57Z
2023-01-14T13:06:44Z,42.805,6.029,13.3017,4.60066,2470.67,2023-1-14T15:13:01Z
2023-01-14T13:09:47Z,42.805,6.029,13.3015,4.60067,2470.73,2023-1-14T15:16:04Z
2023-01-14T13:12:50Z,42.805,6.029,13.3018,4.60067,2470.684,2023-1-14T15:19:07Z
2023-01-14T13:15:53Z,42.805,6.029,13.3013,4.60067,2470.717,2023-1-14T15:22:10Z
2023-01-14T13:18:56Z,42.805,6.029,13.3015,4.60071,2470.661,2023-1-14T15:25:13Z
2023-01-14T13:21:59Z,42.805,6.029,13.3015,4.60066,2470.693,2023-1-14T15:28:16Z
2023-01-14T13:25:02Z,42.805,6.029,13.3015,4.60067,2470.693,2023-1-14T15:31:19Z
2023-01-14T13:28:06Z,42.805,6.029,13.3014,4.60067,2470.693,2023-1-14T15:34:22Z
2023-01-14T13:31:09Z,42.805,6.029,13.3018,4.60067,2470.693,2023-1-14T15:37:25Z
2023-01-14T13:34:12Z,42.805,6.029,13.3017,4.60068,2470.693,2023-1-14T15:40:28Z
2023-01-14T13:37:15Z,42.805,6.029,13.3019,4.60068,2470.693,2023-1-14T15:43:32Z
2023-01-14T13:40:18Z,42.805,6.029,13.3016,4.60067,2470.684,2023-1-14T15:46:35Z
2023-01-14T13:43:21Z,42.805,6.029,13.3015,4.60068,2470.693,2023-1-14T15:49:38Z
2023-01-14T13:46:24Z,42.805,6.029,13.3020,4.60067,2470.693,2023-1-14T15:52:41Z
2023-01-14T13:49:27Z,42.805,6.029,13.3015,4.60069,2470.707,2023-1-14T15:55:44Z
2023-01-14T13:52:30Z,42.805,6.029,13.3019,4.60069,2470.684,2023-1-14T15:58:47Z
2023-01-14T13:55:33Z,42.805,6.029,13.3014,4.60068,2470.684,2023-1-14T16:01:50Z
2023-01-14T13:58:36Z,42.805,6.029,13.3015,4.60067,2470.67,2023-1-14T16:04:53Z
2023-01-14T14:01:40Z,42.805,6.029,13.3015,4.60069,2470.67,2023-1-14T16:07:56Z
2023-01-14T14:04:43Z,42.805,6.029,13.3021,4.60067,2470.693,2023-1-14T16:10:59Z
2023-01-14T14:07:46Z,42.805,6.029,13.3017,4.60067,2470.693,2023-1-14T16:14:02Z
2023-01-14T14:10:49Z,42.805,6.029,13.3019,4.60068,2470.693,2023-1-14T16:17:06Z
2023-01-14T14:13:52Z,42.805,6.029,13.3017,4.60067,2470.67,2023-1-14T16:20:09Z
2023-01-14T14:16:55Z,42.805,6.029,13.3015,4.60068,2470.646,2023-1-14T16:23:12Z
2023-01-14T14:19:58Z,42.805,6.029,13.3017,4.60068,2470.67,2023-1-14T16:26:15Z
2023-01-14T14:23:01Z,42.805,6.029,13.3021,4.60068,2470.684,2023-1-14T16:29:18Z
2023-01-14T14:26:04Z,42.805,6.029,13.3015,4.60067,2470.707,2023-1-14T16:32:21Z
2023-01-14T14:29:07Z,42.805,6.029,13.3019,4.60068,2470.684,2023-1-14T16:35:24Z
2023-01-14T14:32:11Z,42.805,6.029,13.3018,4.60068,2470.624,2023-1-14T16:38:27Z
2023-01-14T14:35:14Z,42.805,6.029,13.3015,4.60069,2470.646,2023-1-14T16:41:30Z
2023-01-14T14:38:17Z,42.805,6.029,13.3015,4.60068,2470.661,2023-1-14T16:44:33Z
2023-01-14T14:41:20Z,42.805,6.029,13.3019,4.60072,2470.684,2023-1-14T16:47:36Z
2023-01-14T14:44:23Z,42.805,6.029,13.3015,4.60069,2470.67,2023-1-14T16:50:40Z
2023-01-14T14:47:26Z,42.805,6.029,13.3016,4.60068,2470.624,2023-1-14T16:53:43Z
2023-01-14T14:50:29Z,42.805,6.029,13.3021,4.60068,2470.684,2023-1-14T16:56:46Z
2023-01-14T14:53:32Z,42.805,6.029,13.3017,4.60069,2470.67,2023-1-14T16:59:49Z
2023-01-14T14:56:35Z,42.805,6.029,13.3019,4.60067,2470.661,2023-1-14T17:02:52Z
2023-01-14T14:59:38Z,42.805,6.029,13.3021,4.60069,2470.67,2023-1-14T17:05:55Z
2023-01-14T15:02:41Z,42.805,6.029,13.3016,4.60067,2470.67,2023-1-14T17:08:58Z
2023-01-14T15:05:44Z,42.805,6.029,13.3019,4.60068,2470.684,2023-1-14T17:12:01Z
2023-01-14T15:08:48Z,42.805,6.029,13.3022,4.60068,2470.67,2023-1-14T17:15:04Z
2023-01-14T15:11:51Z,42.805,6.029,13.3018,4.60074,2470.646,2023-1-14T17:18:07Z
2023-01-14T15:14:54Z,42.805,6.029,13.3017,4.60069,2470.684,2023-1-14T17:21:10Z